When you browse on this site, cookies collect data to enhance your experience and personalize the content and advertising you see.
Visit our Privacy Policy to learn more. By continuing to use the site, you agree to this use of cookies and data.

Hourly Weather Khandela

Today, 25 September, Friday

Time Temperature Precipitation Wind Pressure Humidity
00:00 +29°C° 0 mm 1 mps 710 mmHg 34%
01:00 +29°C° 0 mm 1 mps 710 mmHg 37%
02:00 +28°C° 0 mm 1 mps 710 mmHg 40%
03:00 +28°C° 0 mm 2 mps 710 mmHg 43%
04:00 +28°C° 0 mm 3 mps 710 mmHg 46%
05:00 +27°C° 0 mm 4 mps 709 mmHg 48%
06:00 +28°C° 0 mm 4 mps 710 mmHg 52%
07:00 +29°C° 0 mm 5 mps 710 mmHg 55%
08:00 +30°C° 0 mm 6 mps 711 mmHg 58%
09:00 +34°C° 0 mm 6 mps 711 mmHg 47%
10:00 +36°C° 0 mm 6 mps 711 mmHg 37%
11:00 +39°C° 0 mm 6 mps 711 mmHg 27%
12:00 +40°C° 0 mm 6 mps 711 mmHg 24%
13:00 +41°C° 0 mm 5 mps 710 mmHg 20%
14:00 +41°C° 0 mm 5 mps 710 mmHg 17%
15:00 +40°C° 0 mm 4 mps 709 mmHg 20%
16:00 +38°C° 0 mm 4 mps 709 mmHg 22%
17:00 +37°C° 0 mm 3 mps 709 mmHg 24%
18:00 +36°C° 0 mm 3 mps 709 mmHg 27%
19:00 +35°C° 0 mm 4 mps 709 mmHg 29%
20:00 +33°C° 0 mm 4 mps 709 mmHg 31%
21:00 +33°C° 0 mm 4 mps 709 mmHg 34%
22:00 +32°C° 0 mm 4 mps 709 mmHg 36%
23:00 +30°C° 0 mm 5 mps 709 mmHg 39%

Tomorrow, 26 September, Saturday

Time Temperature Precipitation Wind Pressure Humidity
00:00 +30°C° 0 mm 5 mps 709 mmHg 43%
01:00 +30°C° 0 mm 5 mps 709 mmHg 46%
02:00 +29°C° 0 mm 5 mps 709 mmHg 50%
03:00 +29°C° 0 mm 5 mps 709 mmHg 55%
04:00 +28°C° 0 mm 5 mps 709 mmHg 60%
05:00 +27°C° 0 mm 4 mps 709 mmHg 65%
06:00 +28°C° 0 mm 4 mps 709 mmHg 62%
07:00 +29°C° 0 mm 5 mps 710 mmHg 59%
08:00 +30°C° 0 mm 5 mps 711 mmHg 57%
09:00 +33°C° 0 mm 5 mps 711 mmHg 51%
10:00 +35°C° 0 mm 4 mps 711 mmHg 45%
11:00 +36°C° 0 mm 4 mps 711 mmHg 38%
12:00 +36°C° 0 mm 4 mps 710 mmHg 36%
13:00 +37°C° 0 mm 3 mps 710 mmHg 34%
14:00 +37°C° 0 mm 3 mps 709 mmHg 32%
15:00 +35°C° 0.2 mm 3 mps 709 mmHg 40%
16:00 +33°C° 0.2 mm 4 mps 709 mmHg 47%
17:00 +30°C° 0.2 mm 4 mps 709 mmHg 55%
18:00 +29°C° 0.8 mm 3 mps 709 mmHg 59%
19:00 +28°C° 0.8 mm 2 mps 710 mmHg 63%
20:00 +27°C° 0.8 mm 1 mps 710 mmHg 67%
21:00 +27°C° 0.1 mm 1 mps 710 mmHg 67%
22:00 +27°C° 0.1 mm 1 mps 710 mmHg 67%
23:00 +27°C° 0.1 mm 1 mps 711 mmHg 67%

Day after tomorrow, 27 September, Sunday

Time Temperature Precipitation Wind Pressure Humidity
00:00 +27°C° 0 mm 1 mps 710 mmHg 66%
01:00 +28°C° 0 mm 2 mps 710 mmHg 65%
02:00 +28°C° 0 mm 3 mps 710 mmHg 65%
03:00 +27°C° 0 mm 2 mps 710 mmHg 66%
04:00 +27°C° 0 mm 2 mps 710 mmHg 67%
05:00 +26°C° 0 mm 2 mps 710 mmHg 68%
06:00 +27°C° 0.1 mm 2 mps 711 mmHg 63%
07:00 +28°C° 0.1 mm 2 mps 712 mmHg 57%
08:00 +28°C° 0.1 mm 2 mps 712 mmHg 52%
09:00 +29°C° 0 mm 2 mps 713 mmHg 50%
10:00 +30°C° 0 mm 2 mps 713 mmHg 48%
11:00 +31°C° 0 mm 1 mps 713 mmHg 45%
12:00 +32°C° 0 mm 1 mps 712 mmHg 43%
13:00 +33°C° 0 mm 1 mps 712 mmHg 40%
14:00 +33°C° 0 mm 1 mps 711 mmHg 37%
15:00 +33°C° 0 mm 1 mps 711 mmHg 38%
16:00 +33°C° 0 mm 1 mps 711 mmHg 39%
17:00 +33°C° 0 mm 1 mps 710 mmHg 39%
18:00 +32°C° 0 mm 1 mps 711 mmHg 42%
19:00 +31°C° 0 mm 1 mps 711 mmHg 45%
20:00 +29°C° 0 mm 2 mps 711 mmHg 47%
21:00 +29°C° 0 mm 2 mps 711 mmHg 50%
22:00 +29°C° 0 mm 2 mps 712 mmHg 52%
23:00 +28°C° 0 mm 3 mps 712 mmHg 55%

28 September, Monday

Time Temperature Precipitation Wind Pressure Humidity
00:00 +28°C° 0 mm 3 mps 711 mmHg 55%
01:00 +27°C° 0 mm 2 mps 711 mmHg 54%
02:00 +27°C° 0 mm 2 mps 711 mmHg 54%
03:00 +27°C° 0 mm 2 mps 711 mmHg 53%
04:00 +26°C° 0 mm 2 mps 711 mmHg 52%
05:00 +26°C° 0 mm 3 mps 711 mmHg 51%
06:00 +27°C° 0 mm 3 mps 712 mmHg 50%
07:00 +28°C° 0 mm 3 mps 713 mmHg 50%
08:00 +29°C° 0 mm 3 mps 713 mmHg 49%
09:00 +31°C° 0 mm 3 mps 714 mmHg 45%
10:00 +33°C° 0 mm 3 mps 714 mmHg 40%
11:00 +35°C° 0 mm 3 mps 714 mmHg 35%
12:00 +36°C° 0 mm 2 mps 713 mmHg 32%
13:00 +36°C° 0 mm 1 mps 713 mmHg 29%
14:00 +34°C° 0 mm 0 mps 712 mmHg 26%
15:00 +36°C° 0 mm 1 mps 712 mmHg 29%
16:00 +35°C° 0 mm 1 mps 711 mmHg 31%
17:00 +34°C° 0 mm 1 mps 711 mmHg 34%
18:00 +33°C° 0 mm 1 mps 711 mmHg 34%
19:00 +32°C° 0 mm 2 mps 711 mmHg 34%
20:00 +31°C° 0 mm 2 mps 712 mmHg 35%
21:00 +30°C° 0 mm 3 mps 712 mmHg 39%
22:00 +30°C° 0 mm 3 mps 712 mmHg 43%
23:00 +29°C° 0 mm 4 mps 712 mmHg 47%

29 September, Tuesday

Time Temperature Precipitation Wind Pressure Humidity
00:00 +28°C° 0 mm 3 mps 712 mmHg 48%
01:00 +28°C° 0 mm 3 mps 711 mmHg 50%
02:00 +28°C° 0 mm 3 mps 711 mmHg 52%
03:00 +27°C° 0 mm 3 mps 711 mmHg 52%
04:00 +27°C° 0 mm 3 mps 711 mmHg 53%
05:00 +27°C° 0 mm 2 mps 711 mmHg 53%
06:00 +28°C° 0 mm 3 mps 712 mmHg 51%
07:00 +28°C° 0 mm 3 mps 713 mmHg 49%
08:00 +29°C° 0 mm 3 mps 713 mmHg 48%
09:00 +32°C° 0 mm 4 mps 713 mmHg 44%
10:00 +33°C° 0 mm 4 mps 713 mmHg 41%
11:00 +34°C° 0 mm 5 mps 713 mmHg 37%
12:00 +35°C° 0 mm 5 mps 713 mmHg 36%
13:00 +36°C° 0 mm 5 mps 712 mmHg 34%
14:00 +36°C° 0 mm 5 mps 712 mmHg 32%
15:00 +35°C° 0 mm 4 mps 711 mmHg 34%
16:00 +35°C° 0 mm 4 mps 711 mmHg 36%
17:00 +34°C° 0 mm 3 mps 710 mmHg 37%
18:00 +33°C° 0 mm 3 mps 710 mmHg 39%
19:00 +31°C° 0 mm 2 mps 711 mmHg 40%
20:00 +30°C° 0 mm 2 mps 711 mmHg 42%
21:00 +29°C° 0 mm 2 mps 711 mmHg 41%
22:00 +29°C° 0 mm 2 mps 711 mmHg 41%
23:00 +29°C° 0 mm 2 mps 711 mmHg 40%

30 September, Wednesday

Time Temperature Precipitation Wind Pressure Humidity
00:00 +29°C° 0 mm 3 mps 711 mmHg 41%
01:00 +28°C° 0 mm 3 mps 711 mmHg 41%
02:00 +28°C° 0 mm 3 mps 711 mmHg 42%
03:00 +28°C° 0 mm 3 mps 711 mmHg 42%
04:00 +27°C° 0 mm 3 mps 711 mmHg 43%
05:00 +27°C° 0 mm 3 mps 711 mmHg 43%
06:00 +28°C° 0 mm 3 mps 712 mmHg 42%
07:00 +29°C° 0 mm 3 mps 712 mmHg 40%
08:00 +30°C° 0 mm 3 mps 713 mmHg 39%
09:00 +33°C° 0 mm 3 mps 713 mmHg 35%
10:00 +34°C° 0 mm 3 mps 713 mmHg 31%
11:00 +36°C° 0 mm 3 mps 713 mmHg 28%
12:00 +37°C° 0 mm 3 mps 713 mmHg 25%
13:00 +37°C° 0 mm 3 mps 712 mmHg 23%
14:00 +38°C° 0 mm 2 mps 711 mmHg 20%
15:00 +37°C° 0 mm 2 mps 711 mmHg 22%
16:00 +36°C° 0 mm 2 mps 711 mmHg 24%
17:00 +36°C° 0 mm 2 mps 711 mmHg 26%
18:00 +34°C° 0 mm 2 mps 711 mmHg 29%
19:00 +32°C° 0 mm 2 mps 711 mmHg 31%
20:00 +31°C° 0 mm 2 mps 711 mmHg 34%
21:00 +30°C° 0 mm 2 mps 711 mmHg 35%
22:00 +30°C° 0 mm 2 mps 711 mmHg 36%
23:00 +29°C° 0 mm 2 mps 711 mmHg 38%
Show more